BOX7LK EGKK-EDDP

Flight info

Callsign BOX7LK
Flight time 1h 11m
Altitude 37000
Route FRANE M604 GASBA M197 REDFA DCT TACHA DCT NORTA DCT ADMOS T959 KOJEC
Aircraft B77L/H-SDE1E2E3FGHIJ2J3J4J5M1RWXYZ/L

Departure

Time 2026-04-15 13:14
Airport London Gatwick Airport (EGKK)

Arrival

Time 2026-04-15 14:25
Airport Leipzig/Halle Airport (EDDP)
Time Latitude Longitude Altitude Speed Heading
2026-04-15 12:50 51.15277 -0.19801 216 ft 0 kts 257°
2026-04-15 12:59 51.15277 -0.19799 208 ft 2 kts 257°
2026-04-15 12:59 51.15282 -0.19759 210 ft 4 kts 257°
2026-04-15 12:59 51.15288 -0.19718 221 ft 4 kts 257°
2026-04-15 13:00 51.15294 -0.19677 208 ft 4 kts 239°
2026-04-15 13:00 51.15311 -0.19656 222 ft 4 kts 176°
2026-04-15 13:00 51.15332 -0.19661 221 ft 4 kts 167°
2026-04-15 13:00 51.15348 -0.19667 215 ft 1 kts 167°
2026-04-15 13:04 51.15347 -0.19667 215 ft 1 kts 167°
2026-04-15 13:05 51.15318 -0.19656 221 ft 6 kts 167°
2026-04-15 13:05 51.15263 -0.19637 214 ft 8 kts 167°
2026-04-15 13:05 51.15206 -0.19617 216 ft 8 kts 168°
2026-04-15 13:05 51.15148 -0.19597 213 ft 8 kts 167°
2026-04-15 13:06 51.15091 -0.19577 218 ft 8 kts 167°
2026-04-15 13:06 51.15039 -0.19538 219 ft 8 kts 130°
2026-04-15 13:06 51.15033 -0.19445 216 ft 9 kts 82°
2026-04-15 13:06 51.15050 -0.19313 214 ft 13 kts 77°
2026-04-15 13:07 51.15070 -0.19169 208 ft 13 kts 77°
2026-04-15 13:07 51.15090 -0.19025 218 ft 13 kts 78°
2026-04-15 13:07 51.15109 -0.18882 214 ft 13 kts 78°
2026-04-15 13:07 51.15129 -0.18738 216 ft 13 kts 77°
2026-04-15 13:08 51.15149 -0.18595 213 ft 13 kts 77°
2026-04-15 13:08 51.15169 -0.18451 211 ft 13 kts 77°
2026-04-15 13:08 51.15185 -0.18306 216 ft 13 kts 82°
2026-04-15 13:08 51.15202 -0.18161 218 ft 13 kts 78°
2026-04-15 13:09 51.15222 -0.18017 214 ft 13 kts 78°
2026-04-15 13:09 51.15242 -0.17873 214 ft 13 kts 77°
2026-04-15 13:09 51.15262 -0.17729 217 ft 13 kts 77°
2026-04-15 13:09 51.15282 -0.17586 208 ft 13 kts 77°
2026-04-15 13:10 51.15298 -0.17453 214 ft 11 kts 79°
2026-04-15 13:10 51.15278 -0.17354 221 ft 10 kts 139°
2026-04-15 13:10 51.15246 -0.17264 216 ft 10 kts 93°
2026-04-15 13:10 51.15256 -0.17158 213 ft 10 kts 79°
2026-04-15 13:11 51.15270 -0.17053 214 ft 9 kts 77°
2026-04-15 13:11 51.15282 -0.16963 208 ft 8 kts 77°
2026-04-15 13:11 51.15296 -0.16869 214 ft 10 kts 77°
2026-04-15 13:11 51.15310 -0.16767 214 ft 9 kts 76°
2026-04-15 13:12 51.15298 -0.16683 220 ft 7 kts 134°
2026-04-15 13:12 51.15264 -0.16659 216 ft 3 kts 161°
2026-04-15 13:12 51.15222 -0.16641 217 ft 8 kts 166°
2026-04-15 13:12 51.15165 -0.16643 216 ft 8 kts 204°
2026-04-15 13:13 51.15134 -0.16723 213 ft 10 kts 252°
2026-04-15 13:13 51.15101 -0.16947 216 ft 42 kts 258°
2026-04-15 13:13 51.14984 -0.17797 220 ft 113 kts 257°
2026-04-15 13:13 51.14772 -0.19304 310 ft 155 kts 256°
2026-04-15 13:14 51.14556 -0.21015 879 ft 159 kts 255°
2026-04-15 13:14 51.14351 -0.22694 1738 ft 147 kts 251°
2026-04-15 13:14 51.14134 -0.24278 2415 ft 152 kts 250°
2026-04-15 13:14 51.13883 -0.26069 2698 ft 178 kts 251°
2026-04-15 13:15 51.13742 -0.28169 3068 ft 203 kts 269°
2026-04-15 13:15 51.14226 -0.30489 3422 ft 243 kts 296°
2026-04-15 13:15 51.15514 -0.32404 4158 ft 270 kts 327°
2026-04-15 13:15 51.17420 -0.32994 5020 ft 292 kts
2026-04-15 13:16 51.19331 -0.31807 5909 ft 303 kts 38°
2026-04-15 13:16 51.20280 -0.30189 6492 ft 303 kts 61°
2026-04-15 13:16 51.20905 -0.27046 7304 ft 296 kts 95°
2026-04-15 13:16 51.20799 -0.23801 7939 ft 297 kts 99°
2026-04-15 13:17 51.20806 -0.20464 8062 ft 305 kts 93°
2026-04-15 13:17 51.20991 -0.17048 8679 ft 310 kts 88°
2026-04-15 13:17 51.21302 -0.13675 9677 ft 311 kts 86°
2026-04-15 13:17 51.21690 -0.10250 10486 ft 317 kts 85°
2026-04-15 13:18 51.22123 -0.06684 10868 ft 341 kts 84°
2026-04-15 13:18 51.22612 -0.02803 11086 ft 369 kts 83°
2026-04-15 13:18 51.23149 0.01359 11210 ft 394 kts 83°
2026-04-15 13:18 51.23721 0.05707 11895 ft 405 kts 83°
2026-04-15 13:19 51.24304 0.10147 12744 ft 412 kts 83°
2026-04-15 13:19 51.25004 0.14585 13557 ft 419 kts 73°
2026-04-15 13:19 51.26468 0.18713 14217 ft 435 kts 53°
2026-04-15 13:19 51.28636 0.22039 15070 ft 441 kts 38°
2026-04-15 13:20 51.31185 0.24788 15805 ft 445 kts 33°
2026-04-15 13:20 51.33807 0.27505 16781 ft 453 kts 33°
2026-04-15 13:20 51.36464 0.30265 17607 ft 457 kts 34°
2026-04-15 13:20 51.39135 0.33058 18439 ft 461 kts 34°
2026-04-15 13:21 51.41828 0.35897 19113 ft 466 kts 34°
2026-04-15 13:21 51.44556 0.38793 19762 ft 472 kts 34°
2026-04-15 13:21 51.47306 0.41727 20389 ft 477 kts 34°
2026-04-15 13:21 51.50082 0.44697 21030 ft 482 kts 35°
2026-04-15 13:22 51.52885 0.47704 21674 ft 487 kts 35°
2026-04-15 13:22 51.55719 0.50748 22336 ft 491 kts 34°
2026-04-15 13:22 51.58569 0.53812 23047 ft 494 kts 35°
2026-04-15 13:22 51.61414 0.56876 23673 ft 500 kts 35°
2026-04-15 13:23 51.64323 0.60014 24175 ft 506 kts 35°
2026-04-15 13:23 51.67260 0.63185 24687 ft 510 kts 35°
2026-04-15 13:23 51.70220 0.66387 25210 ft 514 kts 35°
2026-04-15 13:23 51.73200 0.69616 25740 ft 518 kts 35°
2026-04-15 13:24 51.76191 0.72891 26247 ft 522 kts 36°
2026-04-15 13:24 51.79123 0.76300 26718 ft 524 kts 40°
2026-04-15 13:24 51.81759 0.80385 27131 ft 525 kts 54°
2026-04-15 13:24 51.83843 0.85212 27620 ft 522 kts 64°
2026-04-15 13:25 51.85415 0.90476 28146 ft 518 kts 74°
2026-04-15 13:25 51.86566 0.95989 28622 ft 518 kts 79°
2026-04-15 13:25 51.87534 1.01617 28995 ft 520 kts 81°
2026-04-15 13:25 51.88450 1.07319 29428 ft 524 kts 81°
2026-04-15 13:26 51.89369 1.12975 29871 ft 527 kts 80°
2026-04-15 13:26 51.90338 1.18702 30411 ft 527 kts 79°
2026-04-15 13:26 51.91338 1.24407 30981 ft 524 kts 79°
2026-04-15 13:26 51.92351 1.30073 31541 ft 522 kts 79°
2026-04-15 13:27 51.93367 1.35725 32048 ft 521 kts 79°
2026-04-15 13:27 51.94376 1.41364 32534 ft 520 kts 79°
2026-04-15 13:27 51.95376 1.46991 32969 ft 519 kts 79°
2026-04-15 13:27 51.96370 1.52620 33412 ft 519 kts 79°
2026-04-15 13:28 51.97360 1.58250 33872 ft 518 kts 79°
2026-04-15 13:28 51.98344 1.63860 34300 ft 517 kts 79°
2026-04-15 13:28 51.99309 1.69393 34690 ft 515 kts 79°
2026-04-15 13:28 52.00233 1.75008 35049 ft 514 kts 81°
2026-04-15 13:29 52.01108 1.80622 35412 ft 513 kts 81°
2026-04-15 13:29 52.01966 1.86240 35768 ft 512 kts 81°
2026-04-15 13:29 52.02823 1.91873 36113 ft 511 kts 81°
2026-04-15 13:29 52.03679 1.97476 36431 ft 511 kts 81°
2026-04-15 13:30 52.04539 2.03077 36742 ft 511 kts 81°
2026-04-15 13:30 52.05401 2.08677 37003 ft 512 kts 81°
2026-04-15 13:30 52.07132 2.19961 37076 ft 515 kts 81°
2026-04-15 13:31 52.08849 2.31212 37063 ft 509 kts 81°
2026-04-15 13:31 52.10524 2.42290 37077 ft 507 kts 81°
2026-04-15 13:32 52.12309 2.53377 37078 ft 507 kts 77°
2026-04-15 13:32 52.14406 2.64355 37091 ft 508 kts 76°
2026-04-15 13:33 52.16533 2.75365 37085 ft 509 kts 77°
2026-04-15 13:33 52.18604 2.86328 37089 ft 510 kts 77°
2026-04-15 13:34 52.20668 2.97405 37065 ft 511 kts 76°
2026-04-15 13:34 52.22726 3.08498 37093 ft 511 kts 76°
2026-04-15 13:35 52.24636 3.19656 37110 ft 509 kts 83°
2026-04-15 13:35 52.25388 3.31059 37107 ft 503 kts 94°
2026-04-15 13:36 52.25095 3.42403 37107 ft 499 kts 98°
2026-04-15 13:36 52.24664 3.53659 37098 ft 500 kts 97°
2026-04-15 13:37 52.24248 3.64990 37108 ft 501 kts 97°
2026-04-15 13:37 52.23846 3.76340 37109 ft 502 kts 97°
2026-04-15 13:38 52.23441 3.87721 37110 ft 502 kts 97°
2026-04-15 13:38 52.23024 3.99121 37101 ft 503 kts 97°
2026-04-15 13:39 52.22595 4.10514 37121 ft 503 kts 97°
2026-04-15 13:39 52.22156 4.21843 37123 ft 503 kts 97°
2026-04-15 13:40 52.21704 4.33248 37125 ft 504 kts 97°
2026-04-15 13:40 52.21240 4.44640 37133 ft 503 kts 97°
2026-04-15 13:41 52.20766 4.56048 37144 ft 504 kts 97°
2026-04-15 13:41 52.20281 4.67435 37133 ft 503 kts 97°
2026-04-15 13:42 52.19788 4.78748 37134 ft 503 kts 97°
2026-04-15 13:42 52.19282 4.90109 37136 ft 502 kts 97°
2026-04-15 13:43 52.18764 5.01485 37126 ft 502 kts 97°
2026-04-15 13:43 52.18237 5.12838 37136 ft 502 kts 97°
2026-04-15 13:44 52.17698 5.24186 37149 ft 503 kts 97°
2026-04-15 13:44 52.17151 5.35475 37156 ft 503 kts 97°
2026-04-15 13:45 52.16589 5.46861 37136 ft 504 kts 96°
2026-04-15 13:47 52.14227 5.92430 37153 ft 507 kts 96°
2026-04-15 13:47 52.13605 6.03886 37155 ft 508 kts 96°
2026-04-15 13:48 52.12973 6.15345 37163 ft 508 kts 96°
2026-04-15 13:48 52.12328 6.26808 37165 ft 508 kts 96°
2026-04-15 13:49 52.11672 6.38278 37169 ft 508 kts 96°
2026-04-15 13:49 52.11009 6.49652 37170 ft 508 kts 96°
2026-04-15 13:50 52.10332 6.61105 37174 ft 508 kts 96°
2026-04-15 13:50 52.09642 6.72557 37176 ft 508 kts 96°
2026-04-15 13:51 52.08942 6.84013 37175 ft 509 kts 96°
2026-04-15 13:51 52.08229 6.95468 37174 ft 509 kts 95°
2026-04-15 13:52 52.07511 7.06853 37174 ft 509 kts 96°
2026-04-15 13:52 52.06777 7.18293 37176 ft 509 kts 96°
2026-04-15 13:53 52.06033 7.29723 37185 ft 509 kts 96°
2026-04-15 13:53 52.05276 7.41167 37184 ft 508 kts 95°
2026-04-15 13:54 52.04508 7.52606 37186 ft 508 kts 95°
2026-04-15 13:54 52.03737 7.63936 37186 ft 508 kts 95°
2026-04-15 13:55 52.02949 7.75344 37196 ft 508 kts 96°
2026-04-15 13:55 52.02150 7.86750 37196 ft 508 kts 95°
2026-04-15 13:56 52.01342 7.98141 37199 ft 507 kts 95°
2026-04-15 13:56 52.00525 8.09445 37200 ft 506 kts 95°
2026-04-15 13:57 51.99696 8.20797 37200 ft 506 kts 95°
2026-04-15 13:57 51.98857 8.32138 37202 ft 506 kts 95°
2026-04-15 13:58 51.98008 8.43466 37203 ft 505 kts 95°
2026-04-15 13:58 51.97153 8.54722 37201 ft 505 kts 95°
2026-04-15 13:59 51.96280 8.66046 37200 ft 505 kts 95°
2026-04-15 13:59 51.95397 8.77356 37204 ft 505 kts 95°
2026-04-15 14:00 51.94953 8.83014 37065 ft 508 kts 95°
2026-04-15 14:00 51.94502 8.88714 36687 ft 510 kts 95°
2026-04-15 14:00 51.94049 8.94397 36254 ft 506 kts 95°
2026-04-15 14:00 51.93602 8.99969 35801 ft 502 kts 95°
2026-04-15 14:01 51.92698 9.11134 34926 ft 498 kts 95°
2026-04-15 14:01 51.92244 9.16692 34496 ft 497 kts 95°
2026-04-15 14:01 51.91788 9.22245 34006 ft 497 kts 95°
2026-04-15 14:02 51.91330 9.27795 33450 ft 497 kts 96°
2026-04-15 14:02 51.90870 9.33333 32909 ft 495 kts 96°
2026-04-15 14:02 51.90410 9.38833 32364 ft 491 kts 96°
2026-04-15 14:02 51.89950 9.44307 31845 ft 487 kts 96°
2026-04-15 14:03 51.89498 9.49653 31328 ft 484 kts 96°
2026-04-15 14:03 51.89040 9.55037 30821 ft 480 kts 96°
2026-04-15 14:03 51.88583 9.60384 30308 ft 477 kts 96°
2026-04-15 14:03 51.88128 9.65682 29727 ft 474 kts 96°
2026-04-15 14:04 51.87828 9.69172 29341 ft 471 kts 96°
2026-04-15 14:04 51.87375 9.74413 28767 ft 468 kts 97°
2026-04-15 14:04 51.86922 9.79603 28222 ft 464 kts 97°
2026-04-15 14:04 51.86345 9.84727 27666 ft 461 kts 101°
2026-04-15 14:05 51.85657 9.89785 27132 ft 458 kts 102°
2026-04-15 14:05 51.84957 9.94785 26597 ft 455 kts 102°
2026-04-15 14:05 51.84258 9.99760 26083 ft 452 kts 102°
2026-04-15 14:05 51.83566 10.04703 25571 ft 449 kts 102°
2026-04-15 14:06 51.82883 10.09612 25074 ft 446 kts 102°
2026-04-15 14:06 51.82205 10.14498 24574 ft 444 kts 102°
2026-04-15 14:06 51.81530 10.19358 24095 ft 441 kts 102°
2026-04-15 14:06 51.80867 10.24120 23584 ft 439 kts 102°
2026-04-15 14:07 51.80198 10.28920 23031 ft 436 kts 102°
2026-04-15 14:07 51.79530 10.33693 22470 ft 434 kts 102°
2026-04-15 14:07 51.78863 10.38438 21921 ft 432 kts 103°
2026-04-15 14:07 51.78199 10.43157 21382 ft 430 kts 103°
2026-04-15 14:08 51.77535 10.47852 20858 ft 428 kts 103°
2026-04-15 14:08 51.76873 10.52519 20336 ft 425 kts 103°
2026-04-15 14:08 51.76223 10.57091 19805 ft 411 kts 103°
2026-04-15 14:08 51.75592 10.61515 19276 ft 398 kts 103°
2026-04-15 14:09 51.74980 10.65794 18795 ft 385 kts 104°
2026-04-15 14:09 51.74384 10.69951 18335 ft 376 kts 104°
2026-04-15 14:09 51.73792 10.74071 17861 ft 378 kts 104°
2026-04-15 14:09 51.73191 10.78226 17406 ft 381 kts 104°
2026-04-15 14:10 51.72585 10.82384 16946 ft 380 kts 105°
2026-04-15 14:10 51.71803 10.86428 16480 ft 375 kts 112°
2026-04-15 14:10 51.70847 10.90318 16025 ft 372 kts 113°
2026-04-15 14:10 51.69891 10.94175 15586 ft 369 kts 113°
2026-04-15 14:11 51.68957 10.97961 15162 ft 366 kts 112°
2026-04-15 14:11 51.68023 11.01772 14715 ft 364 kts 112°
2026-04-15 14:11 51.67100 11.05551 14293 ft 361 kts 112°
2026-04-15 14:11 51.66184 11.09304 13849 ft 356 kts 112°
2026-04-15 14:12 51.65288 11.12979 13354 ft 346 kts 112°
2026-04-15 14:12 51.64425 11.16516 12950 ft 333 kts 112°
2026-04-15 14:12 51.63590 11.19925 12589 ft 322 kts 112°
2026-04-15 14:12 51.62774 11.23249 12255 ft 318 kts 112°
2026-04-15 14:13 51.61861 11.26482 11945 ft 317 kts 120°
2026-04-15 14:13 51.60718 11.29514 11627 ft 315 kts 126°
2026-04-15 14:13 51.59449 11.32343 11291 ft 308 kts 128°
2026-04-15 14:13 51.58199 11.35048 10939 ft 303 kts 128°
2026-04-15 14:14 51.56960 11.37765 10566 ft 299 kts 127°
2026-04-15 14:14 51.55744 11.40465 10210 ft 297 kts 127°
2026-04-15 14:14 51.54540 11.43153 9819 ft 295 kts 127°
2026-04-15 14:14 51.53342 11.45832 9419 ft 293 kts 127°
2026-04-15 14:15 51.52414 11.48725 8998 ft 294 kts 103°
2026-04-15 14:15 51.52421 11.51958 8608 ft 291 kts 74°
2026-04-15 14:15 51.53256 11.54873 8240 ft 285 kts 54°
2026-04-15 14:15 51.54402 11.57400 7870 ft 275 kts 53°
2026-04-15 14:16 51.55521 11.59846 7474 ft 267 kts 53°
2026-04-15 14:16 51.56598 11.62206 7099 ft 263 kts 53°
2026-04-15 14:16 51.57659 11.64546 6717 ft 255 kts 54°
2026-04-15 14:16 51.58367 11.67103 6282 ft 245 kts 89°
2026-04-15 14:17 51.57996 11.69620 5985 ft 232 kts 127°
2026-04-15 14:17 51.56940 11.71573 5791 ft 235 kts 136°
2026-04-15 14:17 51.55799 11.73504 5538 ft 240 kts 135°
2026-04-15 14:17 51.54644 11.75456 5283 ft 239 kts 135°
2026-04-15 14:18 51.53512 11.77355 5024 ft 232 kts 135°
2026-04-15 14:18 51.52404 11.79200 4736 ft 226 kts 135°
2026-04-15 14:18 51.51322 11.80996 4466 ft 221 kts 134°
2026-04-15 14:18 51.50264 11.82753 4203 ft 215 kts 134°
2026-04-15 14:19 51.49252 11.84432 3990 ft 207 kts 134°
2026-04-15 14:19 51.48264 11.86072 3802 ft 201 kts 134°
2026-04-15 14:19 51.47302 11.87667 3525 ft 197 kts 134°
2026-04-15 14:19 51.46370 11.89204 3320 ft 187 kts 134°
2026-04-15 14:20 51.45478 11.90672 3071 ft 178 kts 134°
2026-04-15 14:20 51.44598 11.92129 3045 ft 184 kts 133°
2026-04-15 14:20 51.43717 11.93588 2997 ft 180 kts 134°
2026-04-15 14:20 51.42848 11.95023 2999 ft 179 kts 133°
2026-04-15 14:21 51.41980 11.96447 3003 ft 179 kts 134°
2026-04-15 14:21 51.41103 11.97893 3015 ft 182 kts 132°
2026-04-15 14:21 51.40521 11.99631 2986 ft 178 kts 98°
2026-04-15 14:21 51.40449 12.01631 2795 ft 182 kts 93°
2026-04-15 14:22 51.40414 12.03576 2559 ft 168 kts 91°
2026-04-15 14:22 51.40450 12.05363 2331 ft 158 kts 87°
2026-04-15 14:22 51.40533 12.07118 2140 ft 157 kts 86°
2026-04-15 14:22 51.40617 12.08862 1906 ft 157 kts 86°
2026-04-15 14:23 51.40698 12.10596 1699 ft 154 kts 86°
2026-04-15 14:23 51.40775 12.12251 1475 ft 146 kts 86°
2026-04-15 14:23 51.40850 12.13843 1277 ft 141 kts 86°
2026-04-15 14:23 51.40924 12.15436 1100 ft 146 kts 86°
2026-04-15 14:24 51.41000 12.17053 911 ft 145 kts 85°
2026-04-15 14:24 51.41078 12.18656 690 ft 142 kts 85°
2026-04-15 14:24 51.41149 12.20225 504 ft 142 kts 86°
2026-04-15 14:24 51.41223 12.21775 460 ft 128 kts 85°
2026-04-15 14:25 51.41275 12.22892 470 ft 68 kts 85°
2026-04-15 14:25 51.41304 12.23515 475 ft 38 kts 85°
2026-04-15 14:25 51.41310 12.23855 477 ft 28 kts 97°
2026-04-15 14:25 51.41255 12.24123 472 ft 22 kts 115°
2026-04-15 14:26 51.41217 12.24253 470 ft 10 kts 115°
2026-04-15 14:26 51.41185 12.24356 469 ft 10 kts 123°
2026-04-15 14:26 51.41138 12.24391 471 ft 8 kts 174°
2026-04-15 14:26 51.41100 12.24429 469 ft 6 kts 119°
2026-04-15 14:27 51.41093 12.24497 471 ft 7 kts 92°
2026-04-15 14:27 51.41094 12.24570 472 ft 7 kts 93°
2026-04-15 14:27 51.41071 12.24631 470 ft 7 kts 145°
2026-04-15 14:27 51.41018 12.24652 468 ft 9 kts 171°
2026-04-15 14:28 51.40958 12.24660 467 ft 8 kts 176°
2026-04-15 14:28 51.40907 12.24665 467 ft 6 kts 174°
2026-04-15 14:28 51.40883 12.24695 470 ft 4 kts 116°
2026-04-15 14:28 51.40879 12.24729 470 ft 2 kts 94°
2026-04-15 14:29 51.40879 12.24755 470 ft 2 kts 87°
2026-04-15 14:29 51.40880 12.24781 470 ft 2 kts 86°
2026-04-15 14:29 51.40881 12.24804 470 ft 2 kts 86°
2026-04-15 14:29 51.40882 12.24824 470 ft 2 kts 86°
2026-04-15 14:30 51.40882 12.24832 470 ft 0 kts 86°
2026-04-15 14:30 51.40882 12.24833 470 ft 0 kts 86°
2026-04-15 14:30 51.40882 12.24834 470 ft 0 kts 86°